Terminal Aerodrome Forecast
Issued by NWS Wilmington, OH

Current Version | Previous Version | Graphics & Text | Print | Product List | Glossary On
Versions: 1 2 3 4 5 6 7 8 9 10 11 12 13 14 15 16 17 18 19 20 21 22 23 24 25
000
FTUS41 KILN 131740
TAFILN
TAF
KILN 131740Z 1318/1418 20015G23KT P6SM BKN070
     FM132300 23018G29KT P6SM VCSH OVC045
     FM140300 26016G26KT P6SM OVC025
     FM140800 31014KT P6SM OVC025
     FM141500 35007KT P6SM SCT015=

USA.gov is the U.S. government's official web portal to all federal, state and local government web resources and services.